Bloomington, IN

4:40 AM EDT on August 29, 2016 (GMT -0400)
Monroe County

Weather History for KBMG - September, 2012

Change the Weather History Date:

Monday, September 3, 2012

  Actual Average Record
Temperature  
Mean Temperature 76 °F 70 °F  
Max Temperature 82 °F 83 °F 99 °F (2011)
Min Temperature 70 °F 58 °F 48 °F (1998)
Degree Days  
Heating Degree Days 0 0  
Month to date heating degree days 0 0  
Since 1 July heating degree days 0 7  
Cooling Degree Days 11 6  
Month to date cooling degree days 34 18  
Year to date cooling degree days 1241 835  
Growing Degree Days 25 (Base 50)    
Moisture  
Dew Point 72 °F    
Average Humidity 87    
Maximum Humidity 100    
Minimum Humidity 74    
Precipitation  
Precipitation 0.01 in 0.09 in 0.57 in (2011)
Month to date precipitation 2.03 0.30  
Year to date precipitation 18.33 33.49  
Sea Level Pressure  
Sea Level Pressure 29.84 in    
Wind  
Wind Speed 4 mph (ENE)    
Max Wind Speed 9 mph    
Max Gust Speed 12 mph    
Visibility 5 miles    
Events Fog , Rain    
T = Trace of Precipitation, MM = Missing Value Source: NWS Daily Summary

Daily Weather History Graph

Daily Weather History Graph

Search for Another Location

Airport or City:

Trip Planner

Search our weather history database for the weather conditions in past years. The results will help you decide how hot, cold, wet, or windy it might be!

Date:

Astronomy

Sep. 03, 2012 Rise Set
Actual Time 7:17 AM EDT 8:13 PM EDT
Civil Twilight 6:50 AM EDT 8:40 PM EDT
Nautical Twilight 6:17 AM EDT 9:12 PM EDT
Astronomical Twilight 5:44 AM EDT 9:46 PM EDT
Moon 9:34 PM EDT (9/3) 10:23 AM EDT (9/3)
Length of Visible Light 13h 50m
Length of Day
12h 55m
Waning Gibbous, 90% of the Moon is Illuminated
Sep 3
Waning Gibbous
Sep 8
Last Quarter
Sep 15
New
Sep 22
First Quarter
Sep 29
Full

Hourly Weather History & Observations

Time (EDT) Temp. Heat Index Dew Point Humidity Pressure Visibility Wind Dir Wind Speed Gust Speed Precip Events Conditions
12:53 AM 73.0 °F - 72.0 °F 96% 29.79 in 6.0 mi East 5.8 mph - N/A   Overcast
1:53 AM 73.0 °F - 72.0 °F 96% 29.79 in 6.0 mi ESE 4.6 mph - N/A   Overcast
2:51 AM 73.4 °F - 71.6 °F 94% 29.81 in 2.0 mi East 5.8 mph - N/A   Overcast
2:53 AM 73.0 °F - 72.0 °F 96% 29.79 in 2.0 mi East 4.6 mph - N/A   Overcast
3:17 AM 73.4 °F - 71.6 °F 94% 29.80 in 3.0 mi East 4.6 mph - 0.00 in   Overcast
3:46 AM 73.4 °F - 71.6 °F 94% 29.80 in 2.5 mi ENE 4.6 mph - 0.00 in   Overcast
3:53 AM 73.0 °F - 72.0 °F 96% 29.78 in 2.5 mi East 4.6 mph - 0.00 in   Overcast
4:00 AM 73.4 °F - 71.6 °F 94% 29.81 in 4.0 mi East 4.6 mph - N/A   Overcast
4:53 AM 72.0 °F - 72.0 °F 100% 29.78 in 3.0 mi East 5.8 mph - N/A   Overcast
5:53 AM 72.0 °F - 71.1 °F 97% 29.79 in 4.0 mi East 5.8 mph - N/A   Overcast
6:25 AM 71.6 °F - 71.6 °F 100% 29.81 in 2.0 mi ENE 4.6 mph - N/A   Overcast
6:39 AM 71.6 °F - 71.6 °F 100% 29.81 in 5.0 mi East 5.8 mph - N/A   Overcast
6:53 AM 72.0 °F - 71.1 °F 97% 29.79 in 5.0 mi East 5.8 mph - N/A   Overcast
7:53 AM 72.0 °F - 71.1 °F 97% 29.82 in 7.0 mi NNE 4.6 mph - N/A   Overcast
8:17 AM 71.6 °F - 71.6 °F 100% 29.84 in 1.8 mi NNE 6.9 mph - 0.01 in   Overcast
8:53 AM 72.0 °F - 71.1 °F 97% 29.83 in 1.0 mi NNE 5.8 mph - 0.01 in Rain Light Rain
9:07 AM 71.6 °F - 71.6 °F 100% 29.85 in 0.5 mi NNE 5.8 mph - 0.00 in Fog Fog
9:53 AM 72.0 °F - 71.1 °F 97% 29.83 in 0.5 mi NE 6.9 mph - 0.00 in Fog Fog
10:12 AM 71.6 °F - 71.6 °F 100% 29.85 in 0.2 mi ENE 5.8 mph - N/A Fog Fog
10:24 AM 71.6 °F - 71.6 °F 100% 29.86 in 0.8 mi NNE 3.5 mph - 0.00 in Rain Light Rain
10:32 AM 71.6 °F - 71.6 °F 100% 29.86 in 2.0 mi NE 3.5 mph - 0.00 in   Overcast
10:40 AM 71.6 °F - 71.6 °F 100% 29.86 in 1.5 mi NE 4.6 mph - 0.00 in   Overcast
10:53 AM 72.0 °F - 72.0 °F 100% 29.84 in 2.0 mi ENE 4.6 mph - 0.00 in   Overcast
11:07 AM 73.4 °F - 71.6 °F 94% 29.86 in 3.0 mi East 6.9 mph - N/A   Overcast
11:36 AM 75.2 °F - 73.4 °F 94% 29.86 in 9.0 mi SE 5.8 mph - N/A   Overcast
11:53 AM 77.0 °F - 73.0 °F 88% 29.84 in 10.0 mi ESE 6.9 mph - N/A   Overcast
12:05 PM 77.0 °F - 73.4 °F 89% 29.86 in 10.0 mi Variable 5.8 mph - N/A   Overcast
12:45 PM 78.8 °F - 71.6 °F 78% 29.86 in 10.0 mi SE 5.8 mph - N/A   Mostly Cloudy
12:53 PM 78.1 °F - 71.1 °F 79% 29.83 in 10.0 mi SE 4.6 mph - N/A   Mostly Cloudy
1:26 PM 78.8 °F - 73.4 °F 83% 29.86 in 10.0 mi North 5.8 mph - N/A   Overcast
1:53 PM 79.0 °F - 72.0 °F 79% 29.83 in 10.0 mi NE 5.8 mph - N/A   Mostly Cloudy
2:04 PM 80.6 °F 84.6 °F 71.6 °F 74% 29.86 in 10.0 mi NNE 3.5 mph - N/A   Overcast
2:13 PM 80.6 °F 84.6 °F 71.6 °F 74% 29.86 in 10.0 mi NNE 4.6 mph - N/A   Overcast
2:36 PM 80.6 °F 84.6 °F 71.6 °F 74% 29.86 in 10.0 mi NE 6.9 mph - N/A   Overcast
2:53 PM 81.0 °F 85.2 °F 72.0 °F 74% 29.84 in 10.0 mi NE 5.8 mph - N/A   Overcast
3:17 PM 78.8 °F - 73.4 °F 83% 29.86 in 10.0 mi East 8.1 mph - N/A   Overcast
3:46 PM 78.8 °F - 71.6 °F 78% 29.86 in 10.0 mi NE 5.8 mph - N/A   Overcast
3:53 PM 79.0 °F - 72.0 °F 79% 29.83 in 10.0 mi NE 5.8 mph - N/A   Overcast
4:53 PM 81.0 °F 85.8 °F 73.0 °F 77% 29.83 in 10.0 mi East 5.8 mph - N/A   Overcast
5:53 PM 80.1 °F 83.8 °F 72.0 °F 76% 29.83 in 10.0 mi ENE 5.8 mph - N/A   Mostly Cloudy
6:53 PM 79.0 °F - 72.0 °F 79% 29.83 in 10.0 mi NE 3.5 mph - N/A   Overcast
7:53 PM 78.1 °F - 72.0 °F 81% 29.82 in 10.0 mi Calm Calm - N/A   Clear
8:53 PM 73.9 °F - 72.0 °F 93% 29.84 in 8.0 mi Calm Calm - N/A   Clear
9:53 PM 72.0 °F - 71.1 °F 97% 29.86 in 5.0 mi Calm Calm - N/A   Clear
10:20 PM 71.6 °F - 69.8 °F 94% 29.89 in 1.5 mi Calm Calm - N/A   Clear
10:31 PM 71.6 °F - 71.6 °F 100% 29.89 in 3.0 mi Calm Calm - N/A   Clear
10:53 PM 72.0 °F - 71.1 °F 97% 29.87 in 5.0 mi Calm Calm - N/A   Clear
11:05 PM 71.6 °F - 71.6 °F 100% 29.89 in 1.8 mi Calm Calm - N/A   Clear
11:14 PM 71.6 °F - 69.8 °F 94% 29.89 in 2.5 mi Calm Calm - N/A   Clear
11:16 PM 71.6 °F - 69.8 °F 94% 29.89 in 1.2 mi Calm Calm - N/A   Partly Cloudy
11:18 PM 71.6 °F - 71.6 °F 100% 29.89 in 0.8 mi Calm Calm - N/A   Mist
11:28 PM 69.8 °F - 69.8 °F 100% 29.89 in 2.0 mi Calm Calm - N/A   Partly Cloudy
11:33 PM 69.8 °F - 69.8 °F 100% 29.89 in 0.8 mi Calm Calm - N/A   Scattered Clouds
11:48 PM 71.6 °F - 69.8 °F 94% 29.90 in 2.0 mi Calm Calm - N/A   Mostly Cloudy
11:49 PM 71.1 °F - 70.0 °F 96% 29.87 in 2.5 mi Calm Calm - N/A   Overcast
11:56 PM 71.6 °F - 69.8 °F 94% 29.89 in 3.0 mi Calm Calm - N/A   Overcast